This is the latest recevied weather packets stored in our database for station/object KK7RJD. If no packets are shown the sender has not sent any weather packets the latest 10 day(s).
| Time | Temp. | Humidity | Pressure | Rain* | Wind** | Luminosity | Snow |
|---|---|---|---|---|---|---|---|
| 1777924981 | 13.33° C | 44% | 1012.3 hPa | 0 mm | - | 920 W/m² | - |
| 1777924677 | 13.33° C | 42% | 1012.4 hPa | 0 mm | - | 865 W/m² | - |
| 1777924373 | 12.78° C | 42% | 1012.4 hPa | 0 mm | - | 919 W/m² | - |
| 1777924071 | 12.78° C | 42% | 1012.6 hPa | 0 mm | - | 880 W/m² | - |
| 1777923767 | 12.22° C | 42% | 1012.5 hPa | 0 mm | - | 784 W/m² | - |
| 1777923463 | 12.78° C | 42% | 1012.7 hPa | 0 mm | - | 848 W/m² | - |
| 1777923161 | 12.22° C | 42% | 1012.5 hPa | 0 mm | - | 840 W/m² | - |
| 1777922859 | 11.67° C | 43% | 1012.6 hPa | 0 mm | - | 798 W/m² | - |
| 1777922557 | 12.22° C | 42% | 1012.7 hPa | 0 mm | - | 695 W/m² | - |
| 1777922255 | 12.22° C | 45% | 1012.6 hPa | 0 mm | - | 710 W/m² | - |
| 1777921952 | 11.67° C | 44% | 1012.6 hPa | 0 mm | - | 659 W/m² | - |
| 1777921647 | 11.67° C | 43% | 1012.8 hPa | 0 mm | - | 747 W/m² | - |
| 1777921344 | 11.67° C | 46% | 1012.8 hPa | 0 mm | - | 809 W/m² | - |
| 1777921040 | 12.22° C | 44% | 1012.5 hPa | 0 mm | - | 681 W/m² | - |
| 1777920737 | 12.22° C | 43% | 1012.8 hPa | 0 mm | - | 579 W/m² | - |
| 1777920433 | 12.22° C | 44% | 1012.9 hPa | 0 mm | - | 735 W/m² | - |
| 1777920129 | 12.22° C | 44% | 1012.9 hPa | 0 mm | - | 619 W/m² | - |
| 1777919825 | 12.78° C | 43% | 1012.9 hPa | 0 mm | - | 714 W/m² | - |
| 1777919522 | 12.22° C | 42% | 1012.9 hPa | 0 mm | - | 949 W/m² | - |
| 1777919220 | 12.78° C | 44% | 1013 hPa | 0 mm | - | 653 W/m² | - |
| 1777918917 | 12.78° C | 43% | 1013 hPa | 0 mm | - | 880 W/m² | - |
| 1777918615 | 13.33° C | 42% | 1013.4 hPa | 0 mm | - | 833 W/m² | - |
| 1777918312 | 12.78° C | 44% | 1013.2 hPa | 0 mm | - | 849 W/m² | - |
| 1777918011 | 12.78° C | 44% | 1013 hPa | 0 mm | - | 927 W/m² | - |
| 1777917709 | 12.78° C | 44% | 1013.2 hPa | 0 mm | - | 844 W/m² | - |
* Rain latest hour (hover to see other rain measurements)
** Current wind speed in m/s (hover to see current wind gust speed)